Location: Chevoux
(46.3801°N, 4.9476°E)
Time: 03:07:42
(UTC+00:00)

Vanguard 3 - All Passes

Search period start: 12 May 2021 00:00
Search period end: 22 May 2021 00:00
Orbit: 508 x 3262 km, 33.3° (Epoch: 11 May)

Date Brightness Start Highest point End Pass type
(mag) Time Alt. Az. Time Alt. Az. Time Alt. Az.
12 May - 14:37:57 10° S 14:48:41 18° SE 14:59:06 10° ESE daylight
12 May - 16:45:20 10° SSW 17:02:18 37° SSE 17:16:25 10° E daylight
12 May - 18:58:53 10° WSW 19:16:50 49° S 19:29:12 10° ESE daylight
12 May - 21:15:17 10° W 21:30:25 42° SSW 21:39:54 10° SE visible
12 May - 23:33:33 10° W 23:41:40 20° SW 23:47:32 10° S visible
13 May - 15:31:13 10° SSW 15:46:22 29° SE 16:00:26 10° E daylight
13 May - 17:42:32 10° SW 18:00:44 46° SSE 18:14:48 10° E daylight
13 May - 19:57:48 10° WSW 20:15:11 49° S 20:26:35 10° ESE visible
13 May - 22:15:06 10° W 22:27:47 32° SSW 22:36:03 10° SSE visible
14 May - 14:18:56 10° S 14:30:48 20° SE 14:42:47 10° E daylight
14 May - 16:27:09 10° SW 16:44:30 41° SSE 16:59:40 10° E daylight
14 May - 18:40:48 10° WSW 18:59:18 51° S 19:12:38 10° ESE daylight
14 May - 20:57:13 10° W 21:13:09 42° SSW 21:23:26 10° SE visible
14 May - 23:15:55 10° W 23:24:30 19° SW 23:30:50 10° S visible
15 May - 13:11:27 10° SE 13:15:48 11° SE 13:20:16 10° ESE daylight
15 May - 15:12:58 10° SSW 15:28:27 32° SSE 15:43:35 10° E daylight
15 May - 17:24:31 10° SW 17:43:00 49° SSE 17:58:04 10° E daylight
15 May - 19:39:45 10° WSW 19:57:43 50° S 20:10:02 10° ESE visible
15 May - 21:57:09 10° W 22:10:30 31° SW 22:19:29 10° SSE visible
16 May - 14:00:25 10° S 14:12:53 23° SE 14:26:03 10° E daylight
16 May - 16:09:12 10° SW 16:26:38 43° SSE 16:42:45 10° E daylight
16 May - 18:22:50 10° WSW 18:41:39 53° S 18:55:57 10° ESE daylight
16 May - 20:39:12 10° W 20:55:43 42° SSW 21:06:51 10° SE visible
16 May - 22:58:18 10° W 23:07:12 19° SW 23:13:56 10° S visible
17 May - 12:51:07 10° SSE 12:57:56 13° SE 13:05:13 10° ESE daylight
17 May - 14:55:01 10° SSW 15:10:30 35° SSE 15:26:32 10° E daylight
17 May - 17:06:41 10° WSW 17:25:12 51° S 17:41:11 10° ESE daylight
17 May - 19:21:47 10° W 19:40:08 50° SSW 19:53:22 10° ESE visible
17 May - 21:39:14 10° W 21:53:06 30° SW 22:02:45 10° SSE visible
18 May - 13:42:17 10° S 13:54:56 25° SE 14:09:01 10° E daylight
18 May - 15:51:28 10° SW 16:08:42 46° SSE 16:25:40 10° E daylight
18 May - 18:05:01 10° WSW 18:23:54 53° S 18:39:08 10° ESE daylight
18 May - 20:21:14 10° W 20:38:11 41° SSW 20:50:08 10° SE visible
18 May - 22:40:44 10° W 22:49:46 18° SW 22:56:50 10° SSW visible
19 May - 12:32:06 10° SSE 12:40:04 15° SE 12:48:56 10° ESE daylight
19 May - 14:37:19 10° SSW 14:52:32 37° SSE 15:09:17 10° E daylight
19 May - 16:49:01 10° WSW 17:07:19 53° S 17:24:09 10° ESE daylight
19 May - 19:03:56 10° W 19:22:27 50° SSW 19:36:33 10° SE daylight
19 May - 21:21:22 10° W 21:35:33 29° SW 21:45:51 10° SSE visible
20 May - 13:24:30 10° S 13:37:01 27° SE 13:51:43 10° E daylight
20 May - 15:33:56 10° SW 15:50:45 48° SSE 16:08:26 10° E daylight
20 May - 17:47:20 10° WSW 18:06:05 54° S 18:22:10 10° ESE daylight
20 May - 20:03:21 10° W 20:20:30 40° SSW 20:33:15 10° SE visible
20 May - 22:23:18 10° W 22:32:14 17° SW 22:39:27 10° SSW visible
21 May - 12:13:46 10° SSE 12:22:15 17° SE 12:32:06 10° E daylight
21 May - 14:19:52 10° SSW 14:34:36 40° SSE 14:51:51 10° E daylight
21 May - 16:31:32 10° WSW 16:49:24 54° S 17:06:59 10° ESE daylight
21 May - 18:46:12 10° W 19:04:39 49° SSW 19:19:36 10° SE daylight
21 May - 21:03:36 10° W 21:17:53 28° SW 21:28:46 10° SSE visible
